This demonstration page uses our WeatherBlox Daily Observations layout. Learn more.

Left ArrowRight Arrow

Hourly Observations for May 1, 2021

Temp ( °F °C ) Dew Point ( °F °C ) Humidity (%) Winds ( mph kmh ) Pressure ( in mb ) Visibility ( mi km ) Precip ( " mm )
12:53 am 00:53 Clear 39 3.9 34 1.1 82 82 W 3 6 30.22 1023 10 16 N/A
1:53 am 01:53 Clear 37 2.8 34 1.1 89 89 N N/A 30.21 1023 10 16 N/A
2:53 am 02:53 Clear 35 1.7 33 0.6 93 93 N N/A 30.22 1023 10 16 N/A
3:53 am 03:53 Clear 35 1.7 33 0.6 93 93 N N/A 30.21 1023 10 16 N/A
4:53 am 04:53 Clear 34 1.1 33 0.6 97 97 N N/A 30.20 1023 10 16 N/A
5:53 am 05:53 Clear 33 0.6 32 undefined 96 96 N N/A 30.19 1022 10 16 N/A
6:53 am 06:53 Sunny 33 0.6 32 undefined 96 96 N N/A 30.18 1022 10 16 N/A
7:53 am 07:53 Sunny 39 3.9 35 1.7 86 86 N N/A 30.18 1022 10 16 N/A
8:53 am 08:53 Sunny 45 7.2 36 2.2 71 71 VRB 3 6 30.18 1022 10 16 N/A
9:53 am 09:53 Sunny 51 10.6 32 undefined 48 48 VRB 5 7 30.16 1021 10 16 N/A
10:53 am 10:53 Sunny 55 12.8 32 undefined 42 42 VRB 7 11 30.15 1021 10 16 N/A
11:53 am 11:53 Sunny 59 15 31 -0.6 35 35 VRB 7 11 30.14 1021 10 16 N/A
12:53 pm 12:53 Sunny 63 17.2 33 0.6 33 33 VRB 7 11 30.11 1020 10 16 N/A
1:53 pm 13:53 Sunny 66 18.9 33 0.6 29 29 VRB 3 6 30.08 1019 10 16 N/A
2:53 pm 14:53 Sunny 69 20.6 34 1.1 27 27 VRB 7 11 30.04 1017 10 16 N/A
3:53 pm 15:53 Sunny 71 21.7 35 1.7 27 27 SSW 10 17 30.00 1016 10 16 N/A
4:53 pm 16:53 Sunny 72 22.2 36 2.2 27 27 SSW 9 15 29.97 1015 10 16 N/A
5:53 pm 17:53 Sunny 72 22.2 37 2.8 28 28 VRB 7 11 29.94 1014 10 16 N/A
6:53 pm 18:53 Sunny 71 21.7 38 3.3 30 30 SSW 8 13 29.93 1014 10 16 N/A
7:53 pm 19:53 Sunny 69 20.6 39 3.9 33 33 SSW 3 6 29.91 1013 10 16 N/A
8:53 pm 20:53 Clear 65 18.3 40 4.4 40 40 VRB 5 7 29.91 1013 10 16 N/A
9:53 pm 21:53 Clear 63 17.2 41 5 45 45 N N/A 29.91 1013 10 16 N/A
10:53 pm 22:53 Clear 65 18.3 41 5 42 42 VRB 6 9 29.90 1013 10 16 N/A
11:53 pm 23:53 Clear 63 17.2 42 5.6 47 47 SW 5 7 29.90 1013 10 16 N/A

Powered by AerisWeather